Weather History for KMRH - April, 2014

Change the Weather History Date:

Tuesday, April 22, 2014

  Actual Average Record
Temperature  
Mean Temperature 58 °F -  
Max Temperature 70 °F 72 °F 86 °F (1985)
Min Temperature 46 °F 53 °F 38 °F (1983)
Degree Days  
Heating Degree Days 8    
Growing Degree Days 8 (Base 50)    
Moisture  
Dew Point 51 °F    
Average Humidity 88    
Maximum Humidity 100    
Minimum Humidity 56    
Precipitation  
Precipitation 0.00 in - - ()
Sea Level Pressure  
Sea Level Pressure 29.83 in    
Wind  
Wind Speed 3 mph (SW)    
Max Wind Speed 17 mph    
Max Gust Speed -    
Visibility 5 miles    
Events Fog    
Averages and records for this station are not official NWS values.
T = Trace of Precipitation, MM = Missing Value Source: NWS Daily Summary

Daily Weather History Graph

Daily Weather History Graph

Search for Another Location

Airport or City:

Trip Planner

Search our weather history database for the weather conditions in past years. The results will help you decide how hot, cold, wet, or windy it might be!

Date:

Astronomy

Apr. 22, 2014 Rise Set
Actual Time 6:26 AM EDT 7:44 PM EDT
Civil Twilight 6:00 AM EDT 8:10 PM EDT
Nautical Twilight 5:28 AM EDT 8:42 PM EDT
Astronomical Twilight 4:55 AM EDT 9:15 PM EDT
Moon 1:56 AM EDT (4/22) 12:59 PM EDT (4/22)
Length of Visible Light 14h 10m
Length of Day
13h 18m
Last Quarter, 46% of the Moon is Illuminated
Apr 22
Last Quarter
Apr 29
New
May 6
First Quarter
May 14
Full
May 21
Last Quarter

Hourly Weather History & Observations

Time (EDT) Temp. Dew Point Humidity Pressure Visibility Wind Dir Wind Speed Gust Speed Precip Events Conditions
12:58 AM 53.1 °F 51.1 °F 93% 29.93 in 10.0 mi Calm Calm - N/A   Clear
1:58 AM 50.0 °F 48.0 °F 93% 29.90 in 9.0 mi Calm Calm - N/A   Clear
2:58 AM 50.0 °F 48.9 °F 96% 29.88 in 7.0 mi Calm Calm - N/A   Clear
3:32 AM 46.9 °F 46.9 °F 100% 29.87 in 1.2 mi North - - N/A   Partly Cloudy
3:34 AM 46.0 °F 46.0 °F 100% 29.87 in 0.8 mi Calm Calm - N/A   Mist
3:49 AM 46.9 °F 46.0 °F 97% 29.87 in 1.0 mi Calm Calm - N/A   Clear
3:52 AM 48.2 °F 46.4 °F 93% 29.87 in 3.0 mi Calm Calm - N/A   Clear
3:58 AM 48.9 °F 46.9 °F 93% 29.88 in 9.0 mi Calm Calm - N/A   Clear
4:29 AM 46.9 °F 46.0 °F 97% 29.87 in 1.5 mi Calm Calm - N/A   Clear
4:43 AM 48.0 °F 46.9 °F 96% 29.87 in 3.0 mi Calm Calm - N/A   Clear
4:58 AM 48.0 °F 46.9 °F 96% 29.87 in 7.0 mi Calm Calm - N/A   Clear
5:05 AM 46.9 °F 46.0 °F 97% 29.87 in 1.8 mi Calm Calm - N/A   Clear
5:09 AM 46.9 °F 46.0 °F 97% 29.87 in 0.8 mi Calm Calm - N/A   Clear
5:27 AM 46.9 °F 46.0 °F 97% 29.86 in 1.2 mi Calm Calm - N/A   Clear
5:29 AM 48.0 °F 46.9 °F 96% 29.86 in 3.0 mi Calm Calm - N/A   Clear
5:44 AM 46.9 °F 46.0 °F 97% 29.87 in 1.8 mi Calm Calm - N/A   Clear
5:47 AM 46.9 °F 46.0 °F 97% 29.87 in 0.8 mi Calm Calm - N/A   Mist
5:58 AM 46.0 °F 46.0 °F 100% 29.88 in 0.5 mi Calm Calm - N/A Fog Fog
6:09 AM 46.9 °F 46.0 °F 97% 29.87 in 1.2 mi Calm Calm - N/A   Partly Cloudy
6:21 AM 48.9 °F 48.0 °F 97% 29.87 in 4.0 mi Calm Calm - N/A   Clear
6:35 AM 50.0 °F 48.9 °F 96% 29.87 in 2.0 mi Calm Calm - N/A   Clear
6:38 AM 50.0 °F 50.0 °F 100% 29.87 in 1.0 mi Calm Calm - N/A   Clear
6:45 AM 48.9 °F 48.9 °F 100% 29.87 in 0.2 mi Calm Calm - N/A Fog Fog
6:58 AM 48.9 °F 48.0 °F 97% 29.88 in 0.5 mi Calm Calm - N/A Fog Fog
7:01 AM 48.9 °F 48.9 °F 100% 29.87 in 2.5 mi Calm Calm - N/A   Clear
7:08 AM 50.0 °F 50.0 °F 100% 29.87 in 6.0 mi Calm Calm - N/A   Clear
7:58 AM 57.0 °F 55.9 °F 96% 29.86 in 7.0 mi SSW 4.6 mph - N/A   Clear
8:58 AM 62.1 °F 52.0 °F 70% 29.85 in 10.0 mi SSW 8.1 mph - N/A   Clear
9:58 AM 64.9 °F 57.9 °F 78% 29.84 in 9.0 mi SW 11.5 mph - N/A   Clear
10:58 AM 66.0 °F 59.0 °F 78% 29.84 in 9.0 mi WSW 11.5 mph - N/A   Clear
11:58 AM 68.0 °F 55.9 °F 65% 29.82 in 10.0 mi SW 11.5 mph - N/A   Clear
12:58 PM 68.0 °F 52.0 °F 56% 29.79 in 10.0 mi SW 13.8 mph - N/A   Clear
1:58 PM 69.1 °F 55.0 °F 61% 29.78 in 10.0 mi SSW 17.3 mph - N/A   Clear
2:58 PM 69.1 °F 55.9 °F 63% 29.74 in 10.0 mi SSW 17.3 mph - N/A   Clear
3:58 PM 69.1 °F 55.0 °F 61% 29.71 in 10.0 mi SSW 17.3 mph - N/A   Clear
4:58 PM 68.0 °F 57.0 °F 68% 29.71 in 9.0 mi SW 17.3 mph - N/A   Clear
5:58 PM 66.0 °F 57.0 °F 73% 29.70 in 9.0 mi SW 13.8 mph - N/A   Clear
6:58 PM 64.9 °F 57.9 °F 78% 29.70 in 9.0 mi SW 13.8 mph - N/A   Clear
7:58 PM 64.0 °F 57.9 °F 80% 29.69 in 10.0 mi SW 15.0 mph - N/A   Clear
8:58 PM 64.0 °F 57.9 °F 80% 29.69 in 10.0 mi SW 16.1 mph - N/A   Clear
10:58 PM 63.0 °F 59.0 °F 87% 29.70 in 8.0 mi WSW 12.7 mph - N/A   Scattered Clouds
11:58 PM 63.0 °F 59.0 °F 87% 29.69 in 8.0 mi WSW 5.8 mph - N/A   Mostly Cloudy